轨道通信卫星FM22星 (ORBCOMM FM22)

导读

ORBCOMM FM 22是美国轨道通信公司(Orbcomm)运营的低地球轨道通信卫星,属于Orbcomm FM系列卫星之一,由轨道科学公司(OSC)研发,于1998年9月23日发射升空。该卫星设计寿命为4年,质量约40千克,主要承担低轨通信任务,为用户提供数据通信服务,是Orbcomm全球低轨通信星座的组成部分。

基本信息
目录编号:
25476
目录名称:
ORBCOMM FM 22
国际标识:
1998-053B
轨道中心:
EARTH
卫星名称:
轨道通信卫星FM22星
卫星全名:
轨道通信卫星FM22星 (ORBCOMM FM22)
卫星状态:
在轨 (已飞行10215 天)
发射日期:
1998-09-23 UTC
国别 :
(ORB)
星等 :
--
该卫星已列入 空间交会检测服务 Space Conjunction Data Service (SCDS) ,当前飞行风险评估等级: 无高风险
轨道信息
数据来源 国际轨道数据 AOE轨道数据
星历时间 2026-09-10T17:39:28+0800
1天前
查看轨道信息
2026-09-06T06:00:00+0800
5天前
查看轨道信息
半长轴 7137.994km 7138.011km
偏心率 0.0004834 0.0004833
轨道倾角 45.007° 45.007°
近地点辐角 295.726° 277.517°
升交点赤经 286.350° 307.673°
平近点角 64.309° 212.548°
近地点 756.406km 756.424km
远地点 763.308km 763.324km
周期 100.029分钟 100.029分钟
每日圈数 14.395892 14.395838
详细信息
固有亮度:
8
最大亮度:
6.9
平衡模式:
三轴稳定
覆盖范围:
全球
运营商:
轨道通信公司
运营商所在国:
美国
制造商(研发单位):
轨道ATK公司
制造商所在国:
美国
使用方式:
暂无
卫星简介
轨道通信FM(Orbcomm FM)是一系列低地球轨道通信卫星,由美国卫星通信公司 Orbcomm运营。 截至2015年12月,已有63颗此类卫星绕地球运行。该卫星已退役。
2D轨道图
3D轨道图
轨道高度分析图
轨道倾角分析图
轨道综合分析图
查看轨道综合分析图
交会数据列表
事件ID 空间交会对象 最接近时刻(TCA) 交会距离 交会风险概率(CRP) 交会风险指数(CRI) 操作
CDM_260911-055101-977002-547629
SL-8 R/B (19770)
2026-09-11T
05:51:07+0000
2.333 km
极远距离
1.014573E-6 低风险 0.35
与全量物体交会距离演化趋势
与全量物体交会风险概率演化趋势